Location: Namasale
(1.5000°N, 32.6167°E)
Time: 14:37:04
(UTC+00:00)

Vanguard 1 Rocket - All Passes

Search period start: 19 April 2021 00:00
Search period end: 29 April 2021 00:00
Orbit: 653 x 4223 km, 34.3° (Epoch: 18 April)

Date Brightness Start Highest point End Pass type
(mag) Time Alt. Az. Time Alt. Az. Time Alt. Az.
19 Apr - 01:06:27 10° SW 01:22:46 20° S 01:38:57 10° SE visible
19 Apr - 03:44:39 10° SSW 04:03:59 27° SSE 04:17:16 10° ESE daylight
19 Apr - 06:18:05 10° SW 06:37:20 61° SSE 06:47:01 10° ENE daylight
19 Apr - 08:52:58 10° WSW 09:04:17 37° NW 09:10:40 10° NNE daylight
19 Apr - 16:26:30 10° N 16:30:09 14° NE 16:34:52 10° ENE visible
19 Apr - 18:47:18 10° NW 18:55:44 82° NE 19:13:07 10° SE visible
19 Apr - 21:13:50 10° W 21:26:02 39° SSW 21:46:45 10° SE visible
19 Apr - 23:48:39 10° SW 00:03:47 21° S 00:21:37 10° SE visible
20 Apr - 02:28:14 10° SSW 02:46:42 23° SSE 03:01:38 10° ESE visible
20 Apr - 05:02:30 10° SW 05:23:23 44° SSE 05:35:10 10° E daylight
20 Apr - 07:36:27 10° WSW 07:52:52 69° NW 08:00:57 10° NE daylight
20 Apr - 10:17:38 10° NW 10:18:22 10° NW 10:19:03 10° NW daylight
20 Apr - 17:37:18 10° NNW 17:44:06 46° NE 17:56:51 10° ESE visible
20 Apr - 20:01:37 10° WNW 20:11:43 53° SSW 20:31:11 10° SE visible
20 Apr - 22:32:29 10° WSW 22:46:02 25° SSW 23:04:51 10° SSE visible
21 Apr - 01:11:15 10° SW 01:28:00 20° S 01:44:08 10° SE visible
21 Apr - 03:46:53 10° SW 04:08:05 34° SSE 04:22:00 10° E daylight
21 Apr - 06:20:19 10° SW 06:40:29 78° SE 06:50:24 10° ENE daylight
21 Apr - 08:57:00 10° W 09:07:01 27° NW 09:13:09 10° NNE daylight
21 Apr - 16:28:19 10° N 16:33:03 21° NE 16:39:59 10° E visible
21 Apr - 18:50:28 10° WNW 18:58:42 78° SW 19:15:40 10° SE visible
21 Apr - 21:18:11 10° W 21:29:53 31° SSW 21:48:45 10° SE visible
21 Apr - 23:54:09 10° SW 00:08:52 20° S 00:25:39 10° SE visible
22 Apr - 02:31:12 10° SSW 02:51:18 27° SSE 03:07:00 10° ESE visible
22 Apr - 05:04:31 10° SW 05:26:51 55° SSE 05:38:58 10° ENE daylight
22 Apr - 07:39:32 10° WSW 07:55:36 53° NW 08:03:49 10° NE daylight
22 Apr - 17:40:09 10° NW 17:46:52 64° NE 18:00:05 10° ESE visible
22 Apr - 20:05:27 10° W 20:15:14 41° SSW 20:33:11 10° SE visible
22 Apr - 22:37:48 10° SW 22:50:38 21° S 23:07:39 10° SSE visible
23 Apr - 01:15:19 10° SSW 01:33:05 22° SSE 01:49:43 10° SE visible
23 Apr - 03:49:00 10° SW 04:11:52 41° SSE 04:26:20 10° E daylight
23 Apr - 06:22:47 10° SW 06:43:24 85° NW 06:53:34 10° NE daylight
23 Apr - 09:01:40 10° W 09:09:51 20° NW 09:15:23 10° N daylight
23 Apr - 16:30:39 10° NNW 16:35:51 30° NE 16:44:15 10° E visible
23 Apr - 18:53:52 10° WNW 19:01:55 58° SSW 19:17:58 10° SE visible
23 Apr - 21:22:56 10° WSW 21:34:00 25° SSW 21:50:50 10° SSE visible
23 Apr - 23:59:15 10° SW 00:14:04 19° S 00:30:31 10° SE visible
24 Apr - 02:33:45 10° SSW 02:55:32 32° SSE 03:12:00 10° E visible
24 Apr - 05:06:38 10° SW 05:30:02 69° SE 05:42:29 10° ENE daylight
24 Apr - 07:43:02 10° WSW 07:58:16 40° NW 08:06:32 10° NNE daylight
24 Apr - 15:23:26 10° NNE 15:24:55 11° NE 15:26:33 10° ENE daylight
24 Apr - 17:43:12 10° NW 17:49:48 88° NE 18:02:58 10° SE visible
24 Apr - 20:09:37 10° W 20:19:00 32° SSW 20:35:05 10° SE visible
24 Apr - 22:43:17 10° SW 22:55:30 19° S 23:11:05 10° SE visible
25 Apr - 01:18:40 10° SSW 01:37:52 25° SSE 01:55:21 10° ESE visible
25 Apr - 03:51:05 10° SW 04:15:21 51° SSE 04:30:17 10° ENE daylight
25 Apr - 06:25:31 10° WSW 06:46:09 68° NW 06:56:33 10° NE daylight
25 Apr - 09:07:13 10° WNW 09:12:51 14° NW 09:17:10 10° N daylight
25 Apr - 16:33:17 10° NNW 16:38:38 44° NE 16:47:56 10° ESE visible
25 Apr - 18:57:34 10° W 19:05:22 43° SSW 19:20:04 10° SE visible
25 Apr - 21:28:07 10° SW 21:38:25 21° S 21:53:06 10° SSE visible
26 Apr - 00:03:39 10° SSW 00:19:14 20° S 00:36:05 10° SE visible
26 Apr - 02:36:04 10° SW 02:59:24 38° SSE 03:16:35 10° E visible
26 Apr - 05:08:55 10° SW 05:32:59 84° SE 05:45:44 10° NE daylight
26 Apr - 07:47:02 10° W 08:00:57 31° NW 08:09:04 10° NNE daylight
26 Apr - 15:24:25 10° N 15:27:53 17° NE 15:32:22 10° E daylight
26 Apr - 17:46:28 10° WNW 17:52:55 67° SSW 18:05:32 10° SE visible
26 Apr - 20:14:13 10° WSW 20:23:00 24° SSW 20:36:54 10° SSE visible
26 Apr - 22:48:35 10° SW 23:00:35 18° S 23:15:21 10° SE visible
27 Apr - 01:21:32 10° SSW 01:42:15 29° SSE 02:00:42 10° ESE visible
27 Apr - 03:53:12 10° SW 04:18:34 62° SE 04:33:56 10° ENE daylight
27 Apr - 06:28:36 10° WSW 06:48:46 54° NW 06:59:22 10° NE daylight
27 Apr - 09:15:33 10° NW 09:16:05 10° NW 09:16:36 10° NW daylight
27 Apr - 16:36:08 10° NW 16:41:31 67° NE 16:51:12 10° ESE visible
27 Apr - 19:01:36 10° W 19:09:01 32° SSW 19:21:59 10° SSE visible
27 Apr - 21:33:38 10° SW 21:43:04 17° S 21:55:47 10° SSE visible
28 Apr - 00:07:21 10° SSW 00:24:08 22° SSE 00:41:57 10° ESE visible
28 Apr - 02:38:16 10° SW 03:02:55 46° SSE 03:20:46 10° E visible
28 Apr - 05:11:25 10° SW 05:35:44 81° NW 05:48:48 10° NE daylight
28 Apr - 07:51:37 10° W 08:03:46 24° NW 08:11:27 10° N daylight
28 Apr - 15:26:36 10° NNW 15:30:46 27° NE 15:36:43 10° E daylight
28 Apr - 17:50:01 10° WNW 17:56:16 46° SSW 18:07:50 10° SE visible
28 Apr - 20:19:19 10° SW 20:27:13 19° SSW 20:38:44 10° SSE visible
28 Apr - 22:53:20 10° SSW 23:05:41 18° S 23:20:36 10° SE visible
